SA3VCC-15 Weather Reports


Display with metric or nautical units.
time (UTC)temp
F
wind
direction
speed
MPH
gust
MPH
rain 1hr
in
rain 24hr
in
rain mn
in
humidity
%
barometer
mb
20260508011951 27 0.0 0.0 0.00 0.00 0.00 10 1020.1
20260508005850 28 0.0 0.0 0.00 0.00 0.00 10 1019.9
20260508001651 28 0.0 0.0 0.00 0.00 0.00 10 1019.8
20260507235550 29 0.0 0.0 0.00 0.00 0.00 10 1019.6
20260507233450 29 0.0 0.0 0.00 0.00 0.00 10 1019.5
20260507231350 30 0.0 0.0 0.00 0.00 0.00 10 1019.1
20260507223150 31 0.0 0.0 0.00 0.00 0.00 99 1018.8
20260507221050 31 0.0 0.0 0.00 0.00 0.00 97 1018.7
20260507214950 32 0.0 0.0 0.00 0.00 0.00 95 1018.6
20260507212850 34 0.0 0.0 0.00 0.00 0.00 92 1018.4
20260507210750 35 0.0 0.0 0.00 0.00 0.00 88 1018.1
20260507204650 35 0.0 0.0 0.00 0.00 0.00 86 1017.7
20260507202550 36 0.0 0.0 0.00 0.00 0.00 83 1017.4
20260507200450 38 0.0 0.0 0.00 0.00 0.00 79 1017.2
20260507194350 41 0.0 0.0 0.00 0.00 0.00 70 1016.9
20260507190150 44 0.0 0.0 0.00 0.00 0.00 55 1016.3
20260507184050 46 0.0 0.0 0.00 0.00 0.00 52 1015.9
20260507181949 48 0.0 0.0 0.00 0.00 0.00 49 1015.6
20260507175850 50 0.0 0.0 0.00 0.00 0.00 45 1015.4
20260507171649 51 0.0 0.0 0.00 0.00 0.00 40 1014.9
20260507165550 52 0.0 0.0 0.00 0.00 0.00 42 1014.7
20260507163449 57 0.0 0.0 0.00 0.00 0.00 36 1014.4
20260507161349 60 0.0 0.0 0.00 0.00 0.00 32 1014.3
20260507155249 62 0.0 0.0 0.00 0.00 0.00 30 1014.2
20260507153149 53 0.0 0.0 0.00 0.00 0.00 41 1014.2
20260507151049 53 0.0 0.0 0.00 0.00 0.00 42 1014.1
20260507142849 64 0.0 0.0 0.00 0.00 0.00 29 1013.8
20260507140749 63 0.0 0.0 0.00 0.00 0.00 29 1013.7
20260507134649 61 0.0 0.0 0.00 0.00 0.00 32 1013.6
20260507132549 60 0.0 0.0 0.00 0.00 0.00 32 1013.5
20260507130449 60 0.0 0.0 0.00 0.00 0.00 37 1013.4
20260507124349 57 0.0 0.0 0.00 0.00 0.00 37 1013.5
20260507122249 61 0.0 0.0 0.00 0.00 0.00 35 1013.3
20260507120150 58 0.0 0.0 0.00 0.00 0.00 40 1013.2
20260507114049 53 0.0 0.0 0.00 0.00 0.00 42 1012.9
20260507111949 60 0.0 0.0 0.00 0.00 0.00 33 1012.7
20260507105849 60 0.0 0.0 0.00 0.00 0.00 31 1012.6
20260507103749 59 0.0 0.0 0.00 0.00 0.00 33 1012.5
20260507101649 61 0.0 0.0 0.00 0.00 0.00 34 1012.3
20260507095549 70 0.0 0.0 0.00 0.00 0.00 25 1012.2
20260507093449 64 0.0 0.0 0.00 0.00 0.00 30 1012.2
20260507091349 64 0.0 0.0 0.00 0.00 0.00 31 1012.3
20260507085249 60 0.0 0.0 0.00 0.00 0.00 29 1012.2
20260507083149 60 0.0 0.0 0.00 0.00 0.00 35 1012.2
20260507081049 63 0.0 0.0 0.00 0.00 0.00 33 1012.0
20260507074949 60 0.0 0.0 0.00 0.00 0.00 32 1012.0
20260507072849 56 0.0 0.0 0.00 0.00 0.00 38 1011.9
20260507070749 53 0.0 0.0 0.00 0.00 0.00 40 1011.8
20260507060449 48 0.0 0.0 0.00 0.00 0.00 48 1011.4
20260507054349 44 0.0 0.0 0.00 0.00 0.00 52 1011.3
20260507052249 43 0.0 0.0 0.00 0.00 0.00 55 1011.2
20260507050148 42 0.0 0.0 0.00 0.00 0.00 55 1011.2
20260507044048 40 0.0 0.0 0.00 0.00 0.00 58 1011.2
20260507041948 41 0.0 0.0 0.00 0.00 0.00 56 1011.1
20260507035848 39 0.0 0.0 0.00 0.00 0.00 60 1011.0
20260507031649 37 0.0 0.0 0.00 0.00 0.00 61 1010.7
20260507025548 38 0.0 0.0 0.00 0.00 0.00 62 1010.6
20260507023448 37 0.0 0.0 0.00 0.00 0.00 61 1010.5
20260507021348 37 0.0 0.0 0.00 0.00 0.00 60 1010.6
20260507015248 37 0.0 0.0 0.00 0.00 0.00 60 1010.6
20260507013148 36 0.0 0.0 0.00 0.00 0.00 62 1010.6